Regional Weather Roundup
Issued by NWS

Home | Current Version | Previous Version | Text Only | Print | Product List | Glossary On
Versions: 1 2 3 4 5 6 7 8 9 10 11 12 13 14 15 16 17 18 19 20 21 22 23 24 25 26 27 28 29 30 31 32 33 34 35 36 37 38 39 40 41 42 43 44 45 46 47 48 49 50
850
ASUS43 KTOP 171808
RWRKS

WEATHER ROUNDUP FOR KANSAS
NATIONAL WEATHER SERVICE GOODLAND KS
1200 PM CST TUE JAN 17 2017

NOTE:  "FAIR" INDICATES FEW OR NO CLOUDS BELOW 12,000 FEET WITH NO
SIGNIFICANT WEATHER AND/OR OBSTRUCTIONS TO VISIBILITY.

KSZ001>006-013>018-027>032-041>047-171900-
NORTHWEST KANSAS

CITY           SKY/WX    TMP DP  RH WIND       PRES   REMARKS
GOODLAND       SUNNY     38  29  70 W6        30.10S
6HR MIN TEMP:  22; 6HR MAX TEMP:  38;

HAYS           MOSUNNY   38  30  73 NW7       30.13F
HILL CITY      SUNNY     40  30  67 NW8       30.13F
6HR MIN TEMP:  29; 6HR MAX TEMP:  40;

RUSSELL        PTSUNNY   37  30  75 W8        30.12S
6HR MIN TEMP:  31; 6HR MAX TEMP:  37;

$$

KSZ061>065-074>080-084>089-171900-
SOUTHWEST KANSAS

CITY           SKY/WX    TMP DP  RH WIND       PRES   REMARKS
DODGE CITY     SUNNY     41  32  70 W8        30.14F
6HR MIN TEMP:  33; 6HR MAX TEMP:  41;

ELKHART          N/A     40  30  67 W2          N/A
GARDEN CITY    SUNNY     39  33  79 W7        30.14F
6HR MIN TEMP:  33; 6HR MAX TEMP:  40;

GREAT BEND     SUNNY     38  29  70 NW9       30.14F
LIBERAL        SUNNY     46  34  61 NW6       30.17F
PRATT          SUNNY     40  28  62 NW8       30.15F
6HR MIN TEMP:  29; 6HR MAX TEMP:  40;

$$

KSZ066>073-081>083-090>101-171900-
SOUTHEAST KANSAS

CITY           SKY/WX    TMP DP  RH WIND       PRES   REMARKS
CHANUTE        CLOUDY    38  34  85 NW9       30.15F
6HR MIN TEMP:  36; 6HR MAX TEMP:  38;

COFFEYVILLE    CLOUDY    40  35  83 W6        30.18F
6HR MIN TEMP:  37; 6HR MAX TEMP:  40;

HUTCHINSON     SUNNY     42  29  59 W8        30.14F
6HR MIN TEMP:  30; 6HR MAX TEMP:  43;

MEDICINE LODGE   N/A     46  28  49 VRB6      30.15F
NEWTON         SUNNY     41  33  73 NW9       30.13F
PARSONS        CLOUDY    40  35  83 W8        30.17F
6HR MIN TEMP:  37; 6HR MAX TEMP:  40;

WICHITA INTL   MOSUNNY   43  30  60 NW8       30.15F
6HR MIN TEMP:  32; 6HR MAX TEMP:  43;

WICHITA JABRA  SUNNY     43  32  65 NW10      30.14F
6HR MIN TEMP:  33; 6HR MAX TEMP:  43;

WINFIELD       SUNNY     44  33  65 W8        30.17F
6HR MIN TEMP:  35; 6HR MAX TEMP:  45;

$$

KSZ007>012-019>026-033>040-048>060-102>105-171900-
NORTHEAST KANSAS

CITY           SKY/WX    TMP DP  RH WIND       PRES   REMARKS
CONCORDIA      SUNNY     34  28  79 NW7       30.11F
6HR MIN TEMP:  28; 6HR MAX TEMP:  34;

EMPORIA        PTSUNNY   42  34  73 W7        30.12F
6HR MIN TEMP:  33; 6HR MAX TEMP:  42;

LAWRENCE       CLOUDY    37  35  92 W9        30.12F
6HR MIN TEMP:  34; 6HR MAX TEMP:  38;

MANHATTAN      PTSUNNY   37  28  70 NW5       30.13F
6HR MIN TEMP:  33; 6HR MAX TEMP:  38;

MARYSVILLE     SUNNY     34  28  80 NW7       30.11F
OLATHE IND     CLOUDY    36  34  92 W9        30.11S
6HR MIN TEMP:  34; 6HR MAX TEMP:  36;

OLATHE EXE     CLOUDY    35  35 100 W8        30.10S
6HR MIN TEMP:  33; 6HR MAX TEMP:  35;

SALINA         MOSUNNY   39  28  64 W8        30.15F
TOPEKA BILLARD CLOUDY    40  34  79 W10       30.12S WCI  33
6HR MIN TEMP:  35; 6HR MAX TEMP:  40;

TOPEKA FORBES  CLOUDY    39  34  82 W8        30.11F
6HR MIN TEMP:  35; 6HR MAX TEMP:  39;

$$




USA.gov is the U.S. government's official web portal to all federal, state and local government web resources and services.